Regional Weather Roundup
Issued by NWS

Home | Current Version | Previous Version | Graphics & Text | Print | Product List | Glossary On
Versions: 1 2 3 4 5 6 7 8 9 10 11 12 13 14 15 16 17 18 19 20 21 22 23 24 25 26 27 28 29 30 31 32 33 34 35 36 37 38 39 40 41 42 43 44 45 46 47 48 49 50
000
ASUS43 KTOP 221559
RWRKS

WEATHER ROUNDUP FOR KANSAS
NATIONAL WEATHER SERVICE GOODLAND KS
1100 AM CDT FRI AUG 22 2014

NOTE:  "FAIR" INDICATES FEW OR NO CLOUDS BELOW 12,000 FEET WITH NO
SIGNIFICANT WEATHER AND/OR OBSTRUCTIONS TO VISIBILITY.

KSZ001>006-013>018-027>032-041>047-221700-
NORTHWEST KANSAS

CITY           SKY/WX    TMP DP  RH WIND       PRES   REMARKS
GOODLAND       MOSUNNY   79  59  50 NE16      30.06R
HAYS           MOSUNNY   84  70  61 N10       29.95R
HILL CITY      MOSUNNY   83  68  60 NE8       29.98S
RUSSELL        MOSUNNY   86  67  52 CALM      29.92S
$$

KSZ061>065-074>080-084>089-221700-
SOUTHWEST KANSAS

CITY           SKY/WX    TMP DP  RH WIND       PRES   REMARKS
DODGE CITY     MOSUNNY   86  63  45 SW10      29.96R
ELKHART          N/A     87  60  40 SW10        N/A
GARDEN CITY    MOSUNNY   83  43  24 MISG      29.98R
GREAT BEND     MOSUNNY   90  66  45 SW8       29.92R
LIBERAL        MOSUNNY   90  61  37 SW17G25   29.99S
$$

KSZ066>073-081>083-090>101-221700-
SOUTHEAST KANSAS

CITY           SKY/WX    TMP DP  RH WIND       PRES   REMARKS
CHANUTE        SUNNY     90  68  48 S17       29.96F
COFFEYVILLE    SUNNY     90  70  51 SW15G22   29.96S HX  95
HUTCHINSON     SUNNY     90  66  45 S12       29.92S
NEWTON         SUNNY     90  64  43 SW17      29.97R
PARSONS        MOSUNNY   89  70  53 S12       29.98S
WICHITA INTL   MOSUNNY   90  65  43 S15       29.93S
WICHITA JABRA  PTSUNNY   87  66  49 S16       29.94R
WINFIELD       SUNNY     91  67  44 S16       29.96S
$$

KSZ007>012-019>026-033>040-048>060-102>105-221700-
NORTHEAST KANSAS

CITY           SKY/WX    TMP DP  RH WIND       PRES   REMARKS
CONCORDIA      PTSUNNY   77  75  93 E7        29.92R
EMPORIA        PTSUNNY   89  68  49 SW12      29.94R
LAWRENCE       MOSUNNY   91  71  51 VRB5      29.95S HX  97
MANHATTAN      PTSUNNY   84  73  69 E8        29.93S
OLATHE IND     SUNNY     87  70  56 W6        29.97F
OLATHE EXE     SUNNY     86  71  60 S6        29.96F
SALINA         SUNNY     91  68  46 SW10      29.91S HX  95
TOPEKA BILLARD PTSUNNY   87  71  58 SE3       29.95S
TOPEKA FORBES  MOSUNNY   87  68  52 CALM      29.96S
$$


USA.gov is the U.S. government's official web portal to all federal, state and local government web resources and services.